Regional Weather Roundup
Issued by NWS

Current Version | Previous Version | Text Only | Print | Product List | Glossary Off
Versions: 1 2 3 4 5 6 7 8 9 10 11 12 13 14 15 16 17 18 19 20 21 22 23 24 25 26 27 28 29 30 31 32 33 34 35 36 37 38 39 40 41 42 43 44 45 46 47 48 49 50

000
ASUS44 KMEG 202210
RWRTN
TENNESSEE HOURLY STATE WEATHER ROUNDUP
NATIONAL WEATHER SERVICE MEMPHIS TN
500 PM CDT WED SEP 20 2017

TNZ002-004-019-021-049-052-054-088>092-202300-
WEST TENNESSEE

CITY           SKY/WX    TMP DP  RH WIND       PRES   REMARKS
MEMPHIS INTL   MOSUNNY   89  72  56 S10       29.94F HX  96
NWS MEMPHIS      N/A     91 N/A N/A MISG        N/A
JACKSON        SUNNY     90  72  55 S7        29.96S HX  97
DYERSBURG      MOSUNNY   89  72  56 S5        29.95S HX  96
SOMERVILLE     SUNNY     90  72  55 VRB7      29.95S HX  96
COVINGTON      MOSUNNY   90  72  55 SW9       29.94S HX  96
BOLIVAR        SUNNY     90  72  55 S6        29.96S HX  96
PARIS          MOSUNNY   88  72  58 S7        29.95S HX  94
HUNTINGDON     SUNNY     90  72  55 S6        29.95S HX  96
LEXINGTON      MOSUNNY   90  72  55 SW6       29.96F HX  96
SELMER         SUNNY     88  72  58 S6        29.97S HX  94
SAVANNAH       SUNNY     90  72  55 CALM      29.96S HX  96
$$

TNZ008-025-027-028-033-062-065-066-202300-
NORTH MIDDLE TENNESSEE

CITY           SKY/WX    TMP DP  RH WIND       PRES   REMARKS
NASHVILLE      LGT RAIN  88  70  55 VRB3      29.99S HX  93
PORTLAND       SUNNY     86  72  62 CALM      29.99S HX  92
CLARKSVILLE    SUNNY     89  68  49 VRB6      29.97S HX  93
SMYRNA         MOSUNNY   88  70  55 E7        30.00S HX  92
COOKEVILLE     SUNNY     86  68  54 CALM      30.02R
GALLATIN       SUNNY     88  68  51 SE6       30.01S HX  91
CROSSVILLE     MOSUNNY   75  63  66 SE3       30.08R
$$

TNZ061-075-076-078-094-096-097-202300-
SOUTH MIDDLE TENNESSEE

CITY           SKY/WX    TMP DP  RH WIND       PRES   REMARKS
FAYETTEVILLE   PTSUNNY   86  68  54 S6        30.00
TULLAHOMA      SUNNY     86  64  48 CALM      30.03S
WINCHESTER     SUNNY     88  68  51 CALM        N/A  HX  91
MCMINNVILLE    SUNNY     88  68  51 W3        30.02S HX  91
COLUMBIA       MOSUNNY   88  70  55 SE3       29.96S HX  92
SHELBYVILLE    SUNNY     88  68  51 CALM      29.99F HX  91
$$

TNZ017-018-042-046-047-202300-
NORTHEAST TENNESSEE

CITY           SKY/WX    TMP DP  RH WIND       PRES   REMARKS
TRI CITIES     MOSUNNY   83  61  47 CALM      30.03F
ELIZABETHTON   SUNNY     84  59  42 NW6       30.04R
$$

TNZ012-013-036-069-073-074-202300-
CENTRAL EAST TENNESSEE

CITY           SKY/WX    TMP DP  RH WIND       PRES   REMARKS
KNOXVILLE      PTSUNNY   86  63  45 VRB3      30.01S
OAK RIDGE      CLOUDY    84  67  56 CALM      30.04R
DOWNTOWN KNOXV SUNNY     79  72  78 CALM      30.00S
GATLINBURG     MOSUNNY   88  61  40 W7        30.01S
MORRISTOWN     SUNNY     84  63  48 N8        30.02S
JACKSBORO      PTSUNNY   79  70  73 CALM      30.06S
$$

TNZ083-085-099-202300-
SOUTHEAST TENNESSEE

CITY           SKY/WX    TMP DP  RH WIND       PRES   REMARKS
CHATTANOOGA    MOSUNNY   88  66  48 CALM      30.00F HX  90
DAYTON         CLEAR     77  72  83 N3        30.00S
$$

SKY/WX REPORTED AS FAIR MEANS FEW OR NO CLOUDS BELOW
12 THOUSAND FEET.





USA.gov is the U.S. government's official web portal to all federal, state and local government web resources and services.